Siloam Springs, AR

4:49 PM CDT on August 19, 2017 (GMT -0500)
Smith

Weather History for KSLG - April, 2014

Change the Weather History Date:

Saturday, April 26, 2014

  Actual Average Record
Temperature  
Mean Temperature 68 °F -  
Max Temperature 80 °F 68 °F 82 °F (2012)
Min Temperature 55 °F 48 °F 39 °F (2005)
Cooling Degree Days 2    
Growing Degree Days 18 (Base 50)    
Moisture  
Dew Point 49 °F    
Average Humidity 48    
Maximum Humidity 61    
Minimum Humidity 37    
Precipitation  
Precipitation 0.00 in - - ()
Sea Level Pressure  
Sea Level Pressure 29.81 in    
Wind  
Wind Speed 11 mph (SSE)    
Max Wind Speed 24 mph    
Max Gust Speed 30 mph    
Visibility 10 miles    
Events Thunderstorm    
Averages and records for this station are not official NWS values.
T = Trace of Precipitation, MM = Missing Value Source: NWS Daily Summary

Daily Weather History Graph

Daily Weather History Graph

Search for Another Location

Airport or City:

Trip Planner

Search our weather history database for the weather conditions in past years. The results will help you decide how hot, cold, wet, or windy it might be!

Date:

Astronomy

Apr. 26, 2014 Rise Set
Actual Time 6:30 AM CDT 8:01 PM CDT
Civil Twilight 6:03 AM CDT 8:28 PM CDT
Nautical Twilight 5:30 AM CDT 9:01 PM CDT
Astronomical Twilight 4:56 AM CDT 9:35 PM CDT
Moon 4:50 AM CDT (4/26) 5:35 PM CDT (4/26)
Length of Visible Light 14h 24m
Length of Day
13h 30m
Waning Crescent, 8% of the Moon is Illuminated
Apr 26
Waning Crescent
Apr 29
New
May 6
First Quarter
May 14
Full
May 21
Last Quarter

Hourly Weather History & Observations

Time (CDT) Temp. Heat Index Dew Point Humidity Pressure Visibility Wind Dir Wind Speed Gust Speed Precip Events Conditions
12:15 AM 64.4 °F - 37.4 °F 37% 29.91 in 10.0 mi South 10.4 mph - N/A   Clear
12:35 AM 62.6 °F - 37.4 °F 39% 29.91 in 10.0 mi South 6.9 mph - N/A   Clear
12:55 AM 57.2 °F - 37.4 °F 48% 29.91 in 10.0 mi South 9.2 mph - N/A   Clear
1:15 AM 57.2 °F - 37.4 °F 48% 29.91 in 10.0 mi SW 4.6 mph - N/A   Clear
1:35 AM 57.2 °F - 37.4 °F 48% 29.91 in 10.0 mi South 8.1 mph - N/A   Clear
1:55 AM 55.4 °F - 37.4 °F 51% 29.90 in 10.0 mi South 9.2 mph - N/A   Clear
2:15 AM 59.0 °F - 37.4 °F 45% 29.90 in 10.0 mi South 8.1 mph - N/A   Clear
2:35 AM 57.2 °F - 37.4 °F 48% 29.89 in 10.0 mi South 5.8 mph - N/A   Clear
2:55 AM 57.2 °F - 37.4 °F 48% 29.89 in 10.0 mi South 5.8 mph - N/A   Clear
3:15 AM 57.2 °F - 37.4 °F 48% 29.88 in 10.0 mi SSE 5.8 mph - N/A   Clear
3:35 AM 57.2 °F - 37.4 °F 48% 29.87 in 10.0 mi SSE 9.2 mph - N/A   Clear
3:55 AM 57.2 °F - 37.4 °F 48% 29.87 in 10.0 mi SE 8.1 mph - N/A   Mostly Cloudy
4:15 AM 57.2 °F - 37.4 °F 48% 29.87 in 10.0 mi SSE 3.5 mph - N/A   Scattered Clouds
4:35 AM 57.2 °F - 37.4 °F 48% 29.87 in 10.0 mi SSE 3.5 mph - N/A   Scattered Clouds
4:55 AM 57.2 °F - 37.4 °F 48% 29.88 in 10.0 mi South 5.8 mph - N/A   Mostly Cloudy
5:15 AM 59.0 °F - 39.2 °F 48% 29.87 in 10.0 mi SE 9.2 mph - N/A   Partly Cloudy
5:35 AM 59.0 °F - 39.2 °F 48% 29.88 in 10.0 mi South 13.8 mph - N/A   Mostly Cloudy
5:55 AM 60.8 °F - 39.2 °F 45% 29.89 in 10.0 mi SW 10.4 mph - N/A   Overcast
6:15 AM 59.0 °F - 39.2 °F 48% 29.88 in 10.0 mi SSE 11.5 mph - N/A   Overcast
6:55 AM 59.0 °F - 39.2 °F 48% 29.90 in 10.0 mi South 8.1 mph - N/A   Mostly Cloudy
7:15 AM 57.2 °F - 42.8 °F 59% 29.90 in 10.0 mi ENE 4.6 mph - N/A   Overcast
7:35 AM 57.2 °F - 41.0 °F 55% 29.89 in 10.0 mi East 4.6 mph - N/A   Mostly Cloudy
7:55 AM 59.0 °F - 41.0 °F 51% 29.91 in 10.0 mi ENE 3.5 mph - N/A Thunderstorm Scattered Clouds
8:15 AM 57.2 °F - 42.8 °F 59% 29.90 in 9.0 mi ESE 9.2 mph - N/A Thunderstorm Thunderstorm
8:35 AM 57.2 °F - 42.8 °F 59% 29.90 in 10.0 mi East 5.8 mph - N/A   Overcast
9:15 AM 60.8 °F - 42.8 °F 52% 29.90 in 10.0 mi ESE 5.8 mph - N/A   Mostly Cloudy
9:35 AM 62.6 °F - 44.6 °F 52% 29.90 in 10.0 mi SE 10.4 mph - N/A   Mostly Cloudy
9:55 AM 66.2 °F - 46.4 °F 49% 29.89 in 10.0 mi SSE 10.4 mph - N/A   Scattered Clouds
10:15 AM 69.8 °F - 46.4 °F 43% 29.89 in 10.0 mi South 12.7 mph 18.4 mph N/A   Clear
10:35 AM 71.6 °F - 48.2 °F 43% 29.89 in 10.0 mi South 19.6 mph 23.0 mph N/A   Clear
10:55 AM 71.6 °F - 48.2 °F 43% 29.89 in 10.0 mi South 13.8 mph - N/A   Clear
11:15 AM 73.4 °F - 48.2 °F 41% 29.89 in 10.0 mi South 13.8 mph 19.6 mph N/A   Clear
11:35 AM 73.4 °F - 51.8 °F 47% 29.88 in 10.0 mi South 16.1 mph 20.7 mph N/A   Clear
11:55 AM 75.2 °F - 53.6 °F 47% 29.88 in 10.0 mi South 16.1 mph 20.7 mph N/A   Clear
12:15 PM 75.2 °F - 57.2 °F 53% 29.87 in 10.0 mi South 18.4 mph 26.5 mph N/A   Clear
12:35 PM 75.2 °F - 55.4 °F 50% 29.86 in 10.0 mi South 16.1 mph 24.2 mph N/A   Clear
12:55 PM 77.0 °F - 55.4 °F 47% 29.85 in 10.0 mi South 13.8 mph 26.5 mph N/A   Clear
1:15 PM 77.0 °F - 55.4 °F 47% 29.84 in 10.0 mi South 18.4 mph 24.2 mph N/A   Clear
1:35 PM 78.8 °F - 55.4 °F 44% 29.83 in 10.0 mi South 15.0 mph 26.5 mph N/A   Clear
1:55 PM 78.8 °F - 57.2 °F 47% 29.82 in 10.0 mi SSW 20.7 mph - N/A   Clear
2:15 PM 78.8 °F - 57.2 °F 47% 29.81 in 10.0 mi South 19.6 mph 24.2 mph N/A   Clear
2:35 PM 78.8 °F - 57.2 °F 47% 29.81 in 10.0 mi SSE 18.4 mph - N/A   Clear
2:55 PM 78.8 °F - 57.2 °F 47% 29.80 in 10.0 mi SSE 17.3 mph 24.2 mph N/A   Clear
3:15 PM 78.8 °F - 55.4 °F 44% 29.78 in 10.0 mi SSE 23.0 mph 26.5 mph N/A   Clear
3:35 PM 80.6 °F 80.5 °F 55.4 °F 42% 29.77 in 10.0 mi South 19.6 mph 27.6 mph N/A   Clear
3:55 PM 80.6 °F 80.5 °F 55.4 °F 42% 29.76 in 10.0 mi SSE 21.9 mph 29.9 mph N/A   Clear
4:15 PM 78.8 °F - 55.4 °F 44% 29.74 in 10.0 mi SSE 20.7 mph 29.9 mph N/A   Clear
4:35 PM 78.8 °F - 55.4 °F 44% 29.73 in 10.0 mi South 17.3 mph 29.9 mph N/A   Clear
4:55 PM 80.6 °F 80.8 °F 57.2 °F 45% 29.72 in 10.0 mi SSE 19.6 mph 27.6 mph N/A   Clear
5:15 PM 80.6 °F 80.5 °F 55.4 °F 42% 29.72 in 10.0 mi SSE 24.2 mph 29.9 mph N/A   Clear
5:35 PM 80.6 °F 80.5 °F 55.4 °F 42% 29.72 in 10.0 mi SSE 20.7 mph 27.6 mph N/A   Clear
5:55 PM 80.6 °F 80.5 °F 55.4 °F 42% 29.72 in 10.0 mi SSE 18.4 mph 27.6 mph N/A   Clear
6:15 PM 78.8 °F - 55.4 °F 44% 29.71 in 10.0 mi SSE 11.5 mph 25.3 mph N/A   Clear
6:35 PM 78.8 °F - 55.4 °F 44% 29.71 in 10.0 mi SSE 21.9 mph - N/A   Clear
6:55 PM 78.8 °F - 55.4 °F 44% 29.69 in 10.0 mi SSE 20.7 mph 24.2 mph N/A   Clear
7:15 PM 78.8 °F - 55.4 °F 44% 29.69 in 10.0 mi SSE 13.8 mph 24.2 mph N/A   Clear
7:35 PM 77.0 °F - 55.4 °F 47% 29.69 in 10.0 mi SSE 11.5 mph - N/A   Clear
7:55 PM 75.2 °F - 55.4 °F 50% 29.69 in 10.0 mi SSE 15.0 mph 20.7 mph N/A   Clear
8:15 PM 75.2 °F - 55.4 °F 50% 29.69 in 10.0 mi SSE 13.8 mph - N/A   Clear
8:35 PM 75.2 °F - 55.4 °F 50% 29.69 in 10.0 mi SSE 18.4 mph 25.3 mph N/A   Clear
8:55 PM 75.2 °F - 55.4 °F 50% 29.70 in 10.0 mi SSE 12.7 mph 21.9 mph N/A   Clear
9:15 PM 75.2 °F - 55.4 °F 50% 29.70 in 10.0 mi SSE 13.8 mph 17.3 mph N/A   Clear
9:35 PM 75.2 °F - 57.2 °F 53% 29.70 in 10.0 mi South 13.8 mph 21.9 mph N/A   Clear
9:55 PM 73.4 °F - 57.2 °F 57% 29.69 in 10.0 mi SSE 19.6 mph 25.3 mph N/A   Clear
10:15 PM 73.4 °F - 57.2 °F 57% 29.69 in 10.0 mi SSE 19.6 mph 29.9 mph N/A   Clear
10:35 PM 73.4 °F - 57.2 °F 57% 29.69 in 10.0 mi South 12.7 mph 23.0 mph N/A   Clear
10:55 PM 73.4 °F - 57.2 °F 57% 29.69 in 10.0 mi SSE 18.4 mph 27.6 mph N/A   Clear
11:15 PM 73.4 °F - 59.0 °F 61% 29.68 in 10.0 mi South 15.0 mph 26.5 mph N/A   Clear
11:35 PM 73.4 °F - 59.0 °F 61% 29.68 in 10.0 mi South 15.0 mph 25.3 mph N/A   Clear
11:55 PM 73.4 °F - 59.0 °F 61% 29.67 in 10.0 mi SSE 17.3 mph 24.2 mph N/A   Clear